Weather History for Phuket, Thailand

Change the Weather History Date:

Wednesday, January 2, 2013

  Actual Average Record
Temperature  
Mean Temperature 82 °F -  
Max Temperature 88 °F 89 °F 93 °F (1997)
Min Temperature 77 °F 74 °F 55 °F (2000)
Cooling Degree Days 18    
Growing Degree Days 32 (Base 50)    
Moisture  
Dew Point 73 °F    
Average Humidity 72    
Maximum Humidity 83    
Minimum Humidity 58    
Precipitation  
Precipitation 0.00 in 0.05 in - ()
Sea Level Pressure  
Sea Level Pressure 29.82 in    
Wind  
Wind Speed 6 mph ()    
Max Wind Speed 14 mph    
Max Gust Speed 24 mph    
Visibility 5.6 miles    
Events      
Averages and records for this station are not official NWS values.
T = Trace of Precipitation, MM = Missing Value Source: Averaged Metar Reports

Daily Weather History Graph

Daily Weather History Graph

Search for Another Location

Airport:

Trip Planner

Search our weather history database for the weather conditions in past years. The results will help you decide how hot, cold, wet, or windy it might be!

Date:

Astronomy

Jan. 02, 2013 Rise Set
Actual Time 6:40 AM ICT 6:20 PM ICT
Civil Twilight 6:18 AM ICT 6:43 PM ICT
Nautical Twilight 5:52 AM ICT 7:09 PM ICT
Astronomical Twilight 5:25 AM ICT 7:35 PM ICT
Moon 10:20 PM ICT (1/2) 10:01 AM ICT (1/2)
Length of Visible Light 12h 25m
Length of Day
11h 39m
Waning Gibbous, 79% of the Moon is Illuminated
Jan 2
Waning Gibbous
Jan 5
Last Quarter
Jan 12
New
Jan 19
First Quarter
Jan 27
Full

Hourly Weather History & Observations

Time (ICT) Temp. Heat Index Dew Point Humidity Pressure Visibility Wind Dir Wind Speed Gust Speed Precip Events Conditions
12:00 AM 80.6 °F 84.6 °F 71.6 °F 74% 29.80 in 6.2 mi NE 4.6 mph - N/A   Mostly Cloudy
12:30 AM 80.6 °F 84.6 °F 71.6 °F 74% 29.80 in 6.2 mi East 8.1 mph - N/A   Mostly Cloudy
1:00 AM 82 °F - 73 °F 68% 29.78 in 6 mi East 6.9 mph - -   Scattered Clouds
1:00 AM 78.8 °F - 71.6 °F 78% 29.80 in 6.2 mi ENE 5.8 mph - N/A   Mostly Cloudy
1:30 AM 78.8 °F - 71.6 °F 78% 29.80 in 6.2 mi ENE 3.5 mph - N/A   Mostly Cloudy
2:00 AM 78.8 °F - 71.6 °F 78% 29.80 in 6.2 mi East 5.8 mph - N/A   Mostly Cloudy
2:30 AM 78.8 °F - 71.6 °F 78% 29.77 in 5.6 mi East 4.6 mph - N/A   Mostly Cloudy
3:00 AM 80.6 °F 84.6 °F 71.6 °F 74% 29.77 in 5.6 mi East 8.1 mph - N/A   Partly Cloudy
3:30 AM 78.8 °F - 71.6 °F 78% 29.77 in 6.2 mi East 10.4 mph - N/A   Mostly Cloudy
4:00 AM 80.6 °F 84.6 °F 71.6 °F 74% 29.77 in 6.2 mi ENE 8.1 mph - N/A   Mostly Cloudy
4:30 AM 80.6 °F 84.6 °F 71.6 °F 74% 29.77 in 6.2 mi East 6.9 mph - N/A   Mostly Cloudy
5:30 AM 80.6 °F 84.6 °F 71.6 °F 74% 29.77 in 6.2 mi ESE 10.4 mph - N/A   Mostly Cloudy
6:00 AM 80.6 °F 84.6 °F 71.6 °F 74% 29.77 in 6.2 mi East 10.4 mph - N/A   Mostly Cloudy
6:30 AM 80.6 °F 84.6 °F 71.6 °F 74% 29.80 in 5.6 mi East 9.2 mph - N/A   Mostly Cloudy
7:00 AM 80 °F - 73 °F 74% 29.77 in 6 mi East 5.8 mph - -   Mist
7:00 AM 78.8 °F - 71.6 °F 78% 29.80 in 5.6 mi ENE 5.8 mph - N/A   Mostly Cloudy
7:30 AM 78.8 °F - 73.4 °F 83% 29.83 in 5.0 mi NE 3.5 mph - N/A   Mostly Cloudy
8:00 AM 82.4 °F 88.2 °F 73.4 °F 74% 29.83 in 5.0 mi Variable 3.5 mph - N/A   Mostly Cloudy
8:30 AM 82.4 °F 87.2 °F 71.6 °F 70% 29.86 in 5.6 mi East 8.1 mph - N/A   Mostly Cloudy
9:00 AM 82.4 °F 87.2 °F 71.6 °F 70% 29.86 in 5.6 mi East 10.4 mph - N/A   Mostly Cloudy
9:30 AM 84.2 °F 89.6 °F 71.6 °F 66% 29.86 in 5.6 mi East 13.8 mph - N/A   Mostly Cloudy
10:00 AM 84.2 °F 89.6 °F 71.6 °F 66% 29.86 in 5.6 mi East 12.7 mph 24.2 mph N/A   Mostly Cloudy
10:30 AM 84.2 °F 89.6 °F 71.6 °F 66% 29.86 in 5.6 mi East 13.8 mph - N/A   Mostly Cloudy
11:00 AM 84.2 °F 89.6 °F 71.6 °F 66% 29.86 in 5.0 mi East 10.4 mph - N/A   Mostly Cloudy
11:30 AM 84.2 °F 90.9 °F 73.4 °F 70% 29.86 in 5.0 mi East 10.4 mph - N/A   Mostly Cloudy
12:00 PM 84.2 °F 90.9 °F 73.4 °F 70% 29.86 in 5.0 mi East 9.2 mph - N/A   Mostly Cloudy
12:30 PM 86.0 °F 93.4 °F 73.4 °F 66% 29.86 in 5.0 mi East 8.1 mph - N/A   Mostly Cloudy
1:00 PM 87 °F - 75 °F 60% 29.83 in 5 mi East 11.5 mph - -   Mist
1:00 PM 84.2 °F 90.9 °F 73.4 °F 70% 29.83 in 5.0 mi East 12.7 mph - N/A   Mostly Cloudy
1:30 PM 86.0 °F 93.4 °F 73.4 °F 66% 29.83 in 5.6 mi East 8.1 mph - N/A   Mostly Cloudy
2:00 PM 87.8 °F 95.6 °F 73.4 °F 62% 29.80 in 5.0 mi East 8.1 mph - N/A   Mostly Cloudy
2:30 PM 86.0 °F 91.8 °F 71.6 °F 62% 29.80 in 5.0 mi East 6.9 mph - N/A   Mostly Cloudy
3:00 PM 86.0 °F 91.8 °F 71.6 °F 62% 29.80 in 5.0 mi Variable 5.8 mph - N/A   Mostly Cloudy
3:30 PM 87.8 °F 93.8 °F 71.6 °F 58% 29.77 in 5.0 mi East 6.9 mph - N/A   Mostly Cloudy
4:00 PM 86.0 °F 93.4 °F 73.4 °F 66% 29.77 in 5.0 mi ENE 6.9 mph - N/A   Mostly Cloudy
4:30 PM 84.2 °F 90.9 °F 73.4 °F 70% 29.77 in 5.0 mi East 6.9 mph - N/A   Mostly Cloudy
5:00 PM 86.0 °F 93.4 °F 73.4 °F 66% 29.77 in 5.0 mi East 5.8 mph - N/A   Mostly Cloudy
5:30 PM 86.0 °F 93.4 °F 73.4 °F 66% 29.80 in 5.0 mi East 3.5 mph - N/A   Mostly Cloudy
6:00 PM 86.0 °F 93.4 °F 73.4 °F 66% 29.80 in 5.0 mi Variable 1.2 mph - N/A   Mostly Cloudy
6:30 PM 82.4 °F 88.2 °F 73.4 °F 74% 29.83 in 5.0 mi Calm Calm - N/A   Mostly Cloudy
7:00 PM 84 °F - 76 °F 72% 29.80 in 5 mi Calm Calm - -   Mist
7:00 PM 82.4 °F 88.2 °F 73.4 °F 74% 29.83 in 5.0 mi NNW 4.6 mph - N/A   Mostly Cloudy
7:30 PM 80.6 °F 85.4 °F 73.4 °F 79% 29.83 in 5.0 mi NNW 4.6 mph - N/A   Mostly Cloudy
8:00 PM 80.6 °F 85.4 °F 73.4 °F 79% 29.86 in 5.0 mi Variable 2.3 mph - N/A   Mostly Cloudy
8:30 PM 80.6 °F 85.4 °F 73.4 °F 79% 29.86 in 6.2 mi Calm Calm - N/A   Scattered Clouds
9:00 PM 80.6 °F 85.4 °F 73.4 °F 79% 29.86 in 6.2 mi Calm Calm - N/A   Scattered Clouds
9:30 PM 80.6 °F 84.6 °F 71.6 °F 74% 29.89 in 6.2 mi Calm Calm - N/A   Scattered Clouds
10:00 PM 82.4 °F 87.2 °F 71.6 °F 70% 29.89 in 6.2 mi ENE 8.1 mph - N/A   Mostly Cloudy
10:30 PM 80.6 °F 85.4 °F 73.4 °F 79% 29.89 in 6.2 mi ENE 5.8 mph - N/A   Mostly Cloudy
11:00 PM 80.6 °F 85.4 °F 73.4 °F 79% 29.89 in 6.2 mi NE 5.8 mph - N/A   Mostly Cloudy
11:30 PM 78.8 °F - 73.4 °F 83% 29.89 in 6.2 mi Calm Calm - N/A   Mostly Cloudy